1998-067WZ

Last updated on Wed Oct 09 2024 00:02:04 GMT+0000 (Coordinated Universal Time)

1 61501U 98067WZ 24282.71150736 .00228301 00000+0 38296-2 0 9996 2 61501 51.6320 113.0862 0009918 75.4874 20.7969 15.50424440 85
UTC large
Height (km)
Speed (km/s)
/
Latitude / Longitude
Inclination (degrees)
Orbital Period (minutes)
Azimuth
Elevation
Range (km)
Doppler Factor

Next 0 passes for location: London (51.5072 / 0.1276)

Sorry there are no passes over London.